Le nostre stazioni meteo in Italia

Pubblicità
Il mio iltempo24.it
Lampedusa, Italia (16490): Temperatura & dewpoint: 21.04.2017 18:00:00 - 27.04.2017 18:00:00 (CEST)Lampedusa, Italia (16490): velocità del vento: 21.04.2017 18:00:00 - 27.04.2017 18:00:00 (CEST)Lampedusa, Italia (16490): direzione del vento: 21.04.2017 18:00:00 - 27.04.2017 18:00:00 (CEST)Lampedusa, Italia (16490): visibility: 21.04.2017 18:00:00 - 27.04.2017 18:00:00 (CEST)
Data & Tempo tt [°C] td [°C] ff [km/h] ff [kn] dd vv [km]
27.04.2017 18:00:00 18,0 17,0 18 10 ESE 10
27.04.2017 17:00:00 19,0 17,0 22 12 ESE 10
27.04.2017 16:00:00 19,0 17,0 22 12 ESE 10
27.04.2017 15:00:00 19,0 17,0 28 15 ESE 10
27.04.2017 14:00:00 19,0 17,0 24 13 ESE 10
27.04.2017 13:00:00 18,0 17,0 18 10 E 10
27.04.2017 12:00:00 18,0 17,0 16 9 NE 10
27.04.2017 11:00:00 18,0 17,0 9 5 NE 10
27.04.2017 10:00:00 18,0 17,0 16 9 ESE 10
27.04.2017 09:00:00 18,0 16,0 13 7 E 10
27.04.2017 08:00:00 17,0 16,0 13 7 ESE 10
27.04.2017 07:00:00 17,0 16,0 11 6 ESE 10
27.04.2017 06:00:00 17,0 16,0 18 10 ESE 10
27.04.2017 05:00:00 - - - - - -
27.04.2017 04:00:00 - - - - - -
27.04.2017 03:00:00 - - - - - -
27.04.2017 02:00:00 - - - - - -
27.04.2017 01:00:00 - - - - - -
27.04.2017 00:00:00 - - - - - -
26.04.2017 23:00:00 - - - - - -
26.04.2017 22:00:00 - - - - - -
26.04.2017 21:00:00 17,0 16,0 22 12 E 10
26.04.2017 20:00:00 17,0 16,0 18 10 E 10
26.04.2017 19:00:00 18,0 16,0 18 10 E 10
26.04.2017 18:00:00 19,0 16,0 15 8 E 10
26.04.2017 17:00:00 20,0 16,0 15 8 E 10
26.04.2017 16:00:00 20,0 16,0 16 9 E 10
26.04.2017 15:00:00 20,0 16,0 21 11 E 10
26.04.2017 14:00:00 20,0 16,0 22 12 ESE 10
26.04.2017 13:00:00 20,0 16,0 24 13 E 10
26.04.2017 12:00:00 19,0 16,0 26 14 E 10
26.04.2017 11:00:00 19,0 16,0 24 13 E 10
26.04.2017 10:00:00 18,0 16,0 22 12 ESE 10
26.04.2017 09:00:00 17,0 16,0 22 12 ESE 8
26.04.2017 08:00:00 17,0 16,0 28 15 E 8
26.04.2017 07:00:00 16,0 16,0 24 13 E 8
26.04.2017 06:00:00 16,0 16,0 21 11 E 7
26.04.2017 05:00:00 - - - - - -
26.04.2017 04:00:00 - - - - - -
26.04.2017 03:00:00 - - - - - -
26.04.2017 02:00:00 - - - - - -
26.04.2017 01:00:00 - - - - - -
26.04.2017 00:00:00 - - - - - -
25.04.2017 23:00:00 - - - - - -
25.04.2017 22:00:00 - - - - - -
25.04.2017 21:00:00 16,0 16,0 26 14 E 8
25.04.2017 20:00:00 17,0 16,0 29 16 E 8
25.04.2017 19:00:00 17,0 16,0 26 14 E 10
25.04.2017 18:00:00 17,0 16,0 29 16 E 10
25.04.2017 17:00:00 18,0 16,0 21 11 E 10
25.04.2017 16:00:00 18,0 16,0 29 16 E 10
25.04.2017 15:00:00 20,0 16,0 28 15 E 10
25.04.2017 14:00:00 20,0 16,0 29 16 E 10
25.04.2017 13:00:00 18,0 16,0 35 19 E 10
25.04.2017 12:00:00 18,0 16,0 35 19 E 10
25.04.2017 11:00:00 17,0 15,0 26 14 E 10
25.04.2017 10:00:00 18,0 15,0 26 14 E 10
25.04.2017 09:00:00 17,0 15,0 28 15 ESE 10
25.04.2017 08:00:00 16,0 15,0 29 16 E 10
25.04.2017 07:00:00 16,0 15,0 26 14 ESE 10
25.04.2017 06:00:00 16,0 15,0 29 16 E 10
25.04.2017 05:00:00 - - - - - -
25.04.2017 04:00:00 - - - - - -
25.04.2017 03:00:00 - - - - - -
25.04.2017 02:00:00 - - - - - -
25.04.2017 01:00:00 - - - - - -
25.04.2017 00:00:00 - - - - - -
24.04.2017 23:00:00 - - - - - -
24.04.2017 22:00:00 - - - - - -
24.04.2017 21:00:00 16,0 15,0 22 12 ESE 10
24.04.2017 20:00:00 17,0 15,0 21 11 ESE 10
24.04.2017 19:00:00 17,0 15,0 21 11 ESE 10
24.04.2017 18:00:00 18,0 16,0 21 11 ESE 10
24.04.2017 17:00:00 18,0 15,0 21 11 ESE 10
24.04.2017 16:00:00 19,0 15,0 22 12 ESE 10
24.04.2017 15:00:00 19,0 14,0 22 12 ESE 10
24.04.2017 14:00:00 19,0 15,0 22 12 ESE 10
24.04.2017 13:00:00 18,0 14,0 18 10 ESE 10
24.04.2017 12:00:00 18,0 14,0 16 9 ESE 10
24.04.2017 11:00:00 18,0 14,0 21 11 SE 10
24.04.2017 10:00:00 17,0 13,0 15 8 SE 10
24.04.2017 09:00:00 16,0 13,0 15 8 SE 10
24.04.2017 08:00:00 15,0 12,0 15 8 SE 10
24.04.2017 07:00:00 15,0 11,0 13 7 SSE 10
24.04.2017 06:00:00 14,0 11,0 8 4 SE 10
24.04.2017 05:00:00 - - - - - -
24.04.2017 04:00:00 - - - - - -
24.04.2017 03:00:00 - - - - - -
24.04.2017 02:00:00 - - - - - -
24.04.2017 01:00:00 14,0 9,0 18 10 SSE 10
24.04.2017 00:00:00 14,0 9,0 18 10 SSE 10
23.04.2017 23:00:00 - - - - - -
23.04.2017 22:00:00 - - - - - -
23.04.2017 21:00:00 15,0 9,0 16 9 SSE 10
23.04.2017 20:00:00 15,0 9,0 15 8 SSE 10
23.04.2017 19:00:00 16,0 8,0 15 8 S 10
23.04.2017 18:00:00 16,0 8,0 15 8 S 10
23.04.2017 17:00:00 17,0 8,0 16 9 S 10
23.04.2017 16:00:00 17,0 8,0 18 10 S 10
23.04.2017 15:00:00 17,0 7,0 18 10 SSO 10
23.04.2017 14:00:00 17,0 7,0 18 10 SSO 10
23.04.2017 13:00:00 17,0 8,0 18 10 SSO 10
23.04.2017 12:00:00 17,0 8,0 18 10 SSO 10
23.04.2017 11:00:00 16,0 7,0 15 8 SO 10
23.04.2017 10:00:00 16,0 7,0 15 8 SO 10
23.04.2017 09:00:00 15,0 7,0 16 9 SSO 10
23.04.2017 08:00:00 14,0 7,0 11 6 SO 10
23.04.2017 07:00:00 12,0 7,0 9 5 OSO 10
23.04.2017 06:00:00 13,0 7,0 11 6 OSO 10
23.04.2017 05:00:00 - - - - - -
23.04.2017 04:00:00 - - - - - -
23.04.2017 03:00:00 - - - - - -
23.04.2017 02:00:00 - - - - - -
23.04.2017 01:00:00 - - - - - -
23.04.2017 00:00:00 - - - - - -
22.04.2017 23:00:00 - - - - - -
22.04.2017 22:00:00 - - - - - -
22.04.2017 21:00:00 14,0 5,0 8 4 NNO 10
22.04.2017 20:00:00 14,0 5,0 9 5 N 10
22.04.2017 19:00:00 15,0 4,0 11 6 N 10
22.04.2017 18:00:00 15,0 3,0 13 7 NNE 10
22.04.2017 17:00:00 16,0 3,0 15 8 N 10
22.04.2017 16:00:00 15,0 3,0 11 6 NNE 10
22.04.2017 15:00:00 15,0 4,0 16 9 N 10
22.04.2017 14:00:00 15,0 4,0 15 8 NNE 10
22.04.2017 13:00:00 15,0 4,0 16 9 NNE 10
22.04.2017 12:00:00 15,0 5,0 22 12 NNE 10
22.04.2017 11:00:00 15,0 4,0 26 14 NNE 10
22.04.2017 10:00:00 15,0 3,0 26 14 N 10
22.04.2017 09:00:00 14,0 3,0 28 15 N 10
22.04.2017 08:00:00 14,0 4,0 29 16 N 10
22.04.2017 07:00:00 13,0 5,0 18 10 N 10
22.04.2017 06:00:00 13,0 6,0 22 12 N 10
22.04.2017 05:00:00 - - - - - -
22.04.2017 04:00:00 - - - - - -
22.04.2017 03:00:00 - - - - - -
22.04.2017 02:00:00 - - - - - -
22.04.2017 01:00:00 - - - - - -
22.04.2017 00:00:00 - - - - - -
21.04.2017 23:00:00 - - - - - -
21.04.2017 22:00:00 - - - - - -
21.04.2017 21:00:00 14,0 6,0 16 9 N 10
21.04.2017 20:00:00 15,0 5,0 18 10 N 10
21.04.2017 19:00:00 15,0 8,0 21 11 NNE 10
21.04.2017 18:00:00 15,0 8,0 21 11 NE 10

tt = Temperatura
td = dewpoint
ff = velocità del vento
dd = direzione del vento
vv = visibility

Stazioni seguenti

WeatherPro
AMSI
MeteoEarth